CZ-6A DEB, 56665

Orbit data source: Space-Track

CZ-6A DEB, 56665 is space debris in SSO originally from a launch on Fri, 11 Nov 2022 UTC launched from the Taiyaun Space Center, China (TSC). Debris objects in space refer to the collection of defunct objects orbiting the Earth. Examples of debris include non-operational satellites, rocket bodies, and fragments generated from explosions, collisions, or faulty payload assembly.

Loading next visibility...
Identifier
56665, 2022-151AGR
Orbit
SSO
Country
Flag of CNCN / PRC
Related business
Manufacturer
SAST
Mission
Spacecraft
Bus & Motor
Unknown
Mass
Unknown
Launch date (UTC)
2022-11-11 (3 years ago)
Launch vehicle
Unknown
Launch site
Taiyaun Space Center, China (TSC)
Object type
Payload
Rocket body
Debris
Shape & HBR
Unknown shape, 0.1 m
Radar Cross Section
Small (<0.1 m²)

Expand to show TLE details & history
Last TLE update: 1 day ago

TLE from 1 day ago
0 CZ-6A DEB
1 56665U 22151AGR 25349.14404424  .00002392  00000-0  47274-3 0  9998
2 56665  98.7176  61.3288 0126663 102.8512 258.6871 14.58411242145468
Epoch: 2025-12-15T03:27Z
TLE epoch observation values (Epoch: 2025-12-15T03:27:25.422Z)
Latitude
-0.00001°
Longitude
-74.57395°
Altitude
719.95 km
Speed
7.486 km/s
True Right ascension
04h 05m 18s
True Declination
0° 00' 00"
Sunlit
Object was in full shadow at epoch
Visualization orbit readout
Latitude
Unknown
Longitude
Unknown
Altitude
Unknown
Speed
Unknown
Apparent Right ascension
Unknown
Apparent Declination
Unknown
Sunlit
N/A
Visualization observer readout
Local Sidereal Time
08:20:49
Azimuth
Unknown
Elevation
Unknown
Doppler factor
Unknown
Orbital elements
Apogee altitude
785.011 km
Perigee altitude
605.82 km
Semi-major axis
7,073.553 km
Eccentricity
0.01267
Inclination
98.7176°
RAAN
61.3288°
Arg. of periapsis
102.8512°
True anomaly
257.2684°
Mean anomaly
258.6871°
Eccentric anomaly
257.97729°
Mean motion
3.64827 °/min
Orbital period
98.68 mins
BSTAR
0.00047274
Loading maneuver chart data...
Computing Atmospheric mass density...
Loading historical data...
Loading historical data...
Loading historical data...
Loading historical data...
Loading historical data...
Loading historical data...
Loading historical data...

Documentation

Showing up to 5 results
|